Location: Croagnes
(43.9363°N, 5.3265°E)
Time: 15:40:53
(UTC+00:00)

ISS - Visible Passes

Search period start: 23 July 2021 00:00
Search period end: 02 August 2021 00:00
Orbit: 419 x 421 km, 51.6° (Epoch: 22 July)

Date Brightness Start Highest point End Pass type
(mag) Time Alt. Az. Time Alt. Az. Time Alt. Az.
23 Jul -1.6 21:06:07 10° NW 21:08:58 24° N 21:11:44 10° ENE visible
23 Jul -2.0 22:42:49 10° NW 22:44:41 30° NW 22:44:41 30° NW visible
24 Jul -1.5 20:18:44 10° NW 20:21:28 22° N 20:24:12 10° ENE visible
24 Jul -3.0 21:55:32 10° NW 21:58:48 49° NNE 21:58:48 49° NNE visible
25 Jul -2.5 21:08:16 10° NW 21:11:26 36° NNE 21:12:58 23° ENE visible
25 Jul -1.2 22:45:05 10° WNW 22:45:55 16° WNW 22:45:55 16° WNW visible
26 Jul -2.0 20:20:58 10° NW 20:24:00 29° NNE 20:27:00 10° ENE visible
26 Jul -2.8 21:57:41 10° WNW 22:00:07 43° WNW 22:00:07 43° WNW visible
27 Jul -3.7 21:10:21 10° NW 21:13:43 75° NNE 21:14:21 55° E visible
28 Jul -3.1 20:23:02 10° NW 20:26:21 50° NNE 20:28:36 18° E visible
28 Jul -1.5 22:00:10 10° W 22:01:33 19° W 22:01:33 19° W visible
29 Jul -2.6 19:35:44 10° NW 19:38:55 37° NNE 19:42:05 10° E visible
29 Jul -3.1 21:12:34 10° WNW 21:15:47 41° SW 21:15:52 41° SW visible
30 Jul -3.7 20:25:08 10° WNW 20:28:30 68° SW 20:30:12 26° SE visible
31 Jul -3.7 19:37:46 10° WNW 19:41:08 76° NNE 19:44:31 10° ESE visible
31 Jul -1.5 21:15:29 10° W 21:17:34 16° SW 21:17:34 16° SW visible
01 Aug -2.1 20:27:33 10° W 20:30:23 25° SW 20:32:01 17° S visible
